Date,TemperatureHighF,TemperatureAvgF,TemperatureLowF,DewpointHighF,DewpointAvgF,DewpointLowF,HumidityHigh,HumidityAvg,HumidityLow,PressureMaxIn,PressureMinIn,WindSpeedMaxMPH,WindSpeedAvgMPH,GustSpeedMaxMPH,PrecipitationSumIn
2013-1-1,40,36,26,30,24,12,70,62,52,29.97,29.77,7,3,7,0.00
2013-1-2,35,28,20,18,14,11,69,57,46,30.12,29.95,8,2,8,0.00
2013-1-3,36,28,20,20,16,11,71,61,47,30.15,30.00,7,1,7,0.00
2013-1-4,41,34,28,25,22,18,70,61,48,30.02,29.88,10,3,10,0.00
2013-1-5,46,35,28,26,22,19,75,58,43,30.22,29.95,9,2,9,0.00
2013-1-6,50,39,31,33,28,24,83,66,46,30.16,29.90,7,2,7,0.00
2013-1-7,48,36,27,31,24,19,83,64,39,30.34,29.98,7,1,7,0.00
2013-1-8,52,35,25,35,26,20,86,72,50,30.37,30.26,7,1,7,0.00
2013-1-9,46,37,27,37,31,23,88,77,66,30.33,30.06,9,1,9,0.00
2013-1-10,51,42,33,34,26,23,70,55,38,30.48,30.16,8,2,8,0.00
2013-1-11,43,37,30,38,31,23,91,77,66,30.48,30.04,2,0,2,0.44
2013-1-12,48,44,41,44,42,38,93,91,88,30.11,30.01,4,0,4,0.02
2013-1-13,49,46,44,46,44,42,94,92,88,30.09,29.95,4,0,4,0.01
2013-1-14,57,49,38,54,43,33,95,80,53,30.24,29.82,6,1,6,0.12
2013-1-15,40,37,35,34,29,26,87,73,62,30.30,30.15,5,1,5,0.10
2013-1-16,35,33,32,33,31,28,92,90,75,30.17,29.75,4,1,4,0.28
2013-1-17,45,38,34,33,30,23,92,73,56,30.03,29.83,8,1,8,0.32
2013-1-18,34,28,25,24,13,8,68,53,36,30.42,29.95,9,2,9,0.00
2013-1-19,50,39,27,30,25,15,70,57,44,30.33,29.85,12,4,12,0.00
2013-1-20,54,41,30,33,24,10,78,52,24,29.98,29.61,13,4,13,0.00
2013-1-21,33,29,22,18,14,8,67,53,43,30.03,29.77,7,1,7,0.00
2013-1-22,27,21,14,17,3,-6,67,46,30,30.15,29.76,9,3,9,0.00
2013-1-23,24,15,10,1,-2,-6,64,46,32,30.19,30.09,8,2,8,0.00
2013-1-24,26,17,10,5,1,-2,73,52,32,30.33,30.06,12,3,12,0.00
2013-1-25,28,19,12,14,6,-1,76,57,43,30.35,30.00,8,1,8,0.00
2013-1-26,32,20,10,13,8,4,81,62,39,30.31,29.97,6,1,6,0.02
2013-1-27,38,25,15,15,10,6,74,55,35,30.46,30.30,6,1,6,0.00
2013-1-28,34,30,22,31,24,11,88,77,61,30.43,29.93,7,1,7,0.07
2013-1-29,50,40,34,43,35,31,90,84,71,30.11,29.92,4,0,4,0.14
2013-1-30,57,47,38,55,44,35,94,90,86,30.02,29.27,7,1,7,0.13
2013-1-31,60,45,30,58,32,11,94,61,37,29.71,28.95,16,7,16,0.94
2013-2-1,33,28,24,16,13,8,65,53,37,30.16,29.70,10,3,10,0.00
2013-2-2,32,25,19,18,12,7,76,57,38,30.23,29.99,9,2,9,0.00
2013-2-3,36,26,20,24,19,15,85,73,57,29.99,29.72,6,1,6,0.04
2013-2-4,33,27,22,21,13,9,78,55,40,29.90,29.73,11,3,11,0.00
2013-2-5,32,29,26,26,22,14,86,75,56,29.91,29.82,4,1,4,0.01
2013-2-6,41,33,25,27,21,6,89,64,37,30.29,29.84,9,2,9,0.01
2013-2-7,34,28,21,21,12,7,67,53,42,30.45,30.26,4,1,4,0.00
2013-2-8,34,32,28,31,28,21,93,84,66,30.26,29.57,8,2,8,0.07
2013-2-9,34,28,20,26,19,7,91,72,46,30.27,29.68,9,2,9,0.12
2013-2-10,41,24,10,23,13,3,77,64,44,30.42,30.25,4,0,4,0.05
2013-2-11,42,34,27,38,31,20,92,86,76,30.26,29.59,2,0,2,0.05
2013-2-12,47,40,31,35,29,23,92,66,47,29.90,29.64,8,2,8,0.00
2013-2-13,47,35,23,31,26,19,88,71,52,29.88,29.61,5,1,5,0.02
2013-2-14,49,37,28,33,29,25,90,75,47,29.92,29.64,7,1,7,0.03
2013-2-15,56,41,31,38,32,26,87,73,49,29.93,29.82,9,1,9,0.00
2013-2-16,41,36,31,34,26,15,89,70,52,29.90,29.66,6,2,6,0.06
2013-2-17,34,27,18,16,7,1,54,43,30,29.93,29.58,14,5,14,0.00
2013-2-18,38,26,17,15,8,2,55,46,30,30.15,29.93,8,3,8,0.00
2013-2-19,48,37,24,40,27,13,88,69,51,30.12,29.59,12,2,12,0.28
2013-2-20,37,31,25,26,16,10,65,53,41,29.90,29.64,12,4,12,0.00
2013-2-21,36,28,24,16,13,11,65,53,42,30.21,29.88,10,4,10,0.00
2013-2-22,41,32,24,28,22,14,73,65,52,30.33,30.18,6,1,6,0.00
2013-2-23,42,37,34,39,34,28,92,87,73,30.20,29.74,6,1,6,0.10
2013-2-24,48,39,32,39,32,23,93,76,54,29.89,29.65,9,2,9,0.02
2013-2-25,46,38,26,30,26,21,83,65,49,30.16,29.89,5,1,5,0.00
2013-2-26,45,37,28,36,30,23,88,76,65,30.21,29.82,11,2,11,0.10
2013-2-27,47,42,36,44,39,33,92,90,82,29.83,29.40,16,4,16,0.58
2013-2-28,51,43,38,41,35,31,93,76,56,29.54,29.45,5,1,5,0.00
2013-3-1,47,39,30,34,29,25,87,68,51,29.70,29.51,7,2,7,0.01
2013-3-2,42,36,32,28,25,24,78,64,52,29.69,29.61,7,2,7,0.00
2013-3-3,44,34,28,24,20,17,74,58,42,29.69,29.57,8,3,8,0.00
2013-3-4,43,34,27,23,20,16,68,57,42,29.83,29.67,13,4,13,0.00
2013-3-5,51,39,30,30,24,20,69,57,41,29.94,29.81,7,2,7,0.00
2013-3-6,46,40,38,35,31,27,78,69,63,29.90,29.77,15,5,15,0.00
2013-3-7,40,36,33,33,30,26,91,77,63,30.00,29.83,10,3,10,0.12
2013-3-8,41,36,32,34,31,27,93,83,63,30.11,29.92,6,1,6,0.42
2013-3-9,57,42,33,29,24,20,68,51,25,30.24,30.09,7,2,7,0.10
2013-3-10,53,39,28,40,30,22,86,71,57,30.31,30.21,6,1,6,0.00
2013-3-11,58,47,37,46,40,32,86,77,63,30.24,30.01,7,2,7,0.00
2013-3-12,55,51,43,53,47,37,92,86,73,30.01,29.57,10,3,10,1.06
2013-3-13,53,42,33,37,31,24,89,66,36,29.80,29.69,9,2,9,0.00
2013-3-14,44,35,30,28,14,7,67,43,26,29.88,29.74,12,5,12,0.00
2013-3-15,46,37,28,30,20,9,61,49,38,29.89,29.61,10,3,10,0.00
2013-3-16,42,35,31,29,25,20,86,68,52,29.83,29.69,5,1,5,0.05
2013-3-17,41,33,28,29,20,14,87,59,37,30.23,29.82,7,2,7,0.01
2013-3-18,38,31,24,30,18,10,87,60,47,30.34,29.94,6,2,6,0.00
2013-3-19,46,37,33,37,33,28,91,84,68,29.94,29.61,8,2,8,0.62
2013-3-20,47,38,30,28,22,17,73,54,34,29.80,29.69,12,3,12,0.00
2013-3-21,43,36,32,26,18,12,76,50,33,29.76,29.54,7,2,7,0.00
2013-3-22,44,35,27,22,18,13,65,51,39,29.80,29.63,9,2,9,0.00
2013-3-23,47,39,30,23,21,18,63,49,35,29.85,29.72,10,4,10,0.00
2013-3-24,50,39,27,26,22,17,68,52,37,29.87,29.62,9,1,9,0.00
2013-3-25,44,40,37,34,28,25,82,65,50,29.62,29.38,9,2,9,0.05
2013-3-26,53,42,31,33,28,24,85,61,39,29.77,29.50,9,1,9,0.00
2013-3-27,56,42,31,31,26,22,73,55,29,29.88,29.77,9,2,9,0.00
2013-3-28,52,43,31,35,30,25,80,60,46,30.02,29.86,8,2,8,0.00
2013-3-29,57,46,34,32,29,26,74,52,34,30.05,29.95,8,2,8,0.00
2013-3-30,62,46,31,33,26,20,80,50,22,30.08,29.96,7,1,7,0.00
2013-3-31,58,44,31,42,33,24,87,64,40,30.03,29.59,9,2,9,0.13
2013-4-1,64,48,37,47,36,13,91,68,35,29.82,29.51,15,3,15,0.02
2013-4-2,48,38,28,18,15,11,57,40,25,30.00,29.82,13,3,13,0.00
2013-4-3,50,39,32,18,14,10,49,36,24,30.21,29.98,10,4,10,0.00
2013-4-4,58,42,27,29,21,13,62,45,31,30.31,29.99,8,2,8,0.00
2013-4-5,64,49,40,30,25,17,62,41,19,29.99,29.61,10,3,10,0.00
2013-4-6,57,43,34,25,17,9,60,37,17,30.22,29.91,8,2,8,0.00
2013-4-7,62,48,37,42,34,25,69,59,43,30.21,29.89,9,3,9,0.00
2013-4-8,75,58,43,46,42,38,84,60,32,29.98,29.88,6,1,6,0.00
2013-4-9,81,66,50,53,44,34,82,50,19,29.91,29.80,8,2,8,0.00
2013-4-10,75,63,53,56,49,40,89,62,40,29.90,29.71,5,1,5,0.35
2013-4-11,63,56,48,56,49,40,91,77,61,29.96,29.68,6,2,6,0.01
2013-4-12,48,44,41,41,39,36,91,84,72,29.95,29.62,12,3,12,0.34
2013-4-13,58,48,40,42,38,34,91,70,43,29.87,29.65,7,1,7,0.04
2013-4-14,57,51,46,40,34,28,74,52,34,30.13,29.86,9,2,9,0.00
2013-4-15,61,50,41,39,33,28,67,52,41,30.29,30.13,6,1,6,0.00
2013-4-16,67,57,47,55,47,35,78,70,63,30.29,30.01,8,2,8,0.00
2013-4-17,70,61,52,55,46,38,83,59,34,30.20,30.01,6,1,6,0.00
2013-4-18,61,54,46,52,44,38,85,69,46,30.25,30.00,6,1,6,0.00
2013-4-19,74,64,56,64,58,52,90,81,68,30.00,29.54,7,2,7,0.13
2013-4-20,63,54,46,60,37,25,89,56,30,30.21,29.55,9,2,9,0.12
2013-4-21,56,46,36,30,24,20,58,44,29,30.52,30.21,7,2,7,0.00
2013-4-22,57,47,37,39,33,29,75,59,39,30.57,30.39,8,2,8,0.00
2013-4-23,53,46,40,42,37,31,84,71,66,30.40,30.01,6,2,6,0.00
2013-4-24,71,53,38,53,44,34,87,72,51,30.02,29.72,8,1,8,0.00
2013-4-25,67,56,46,52,34,25,80,45,23,30.16,29.74,9,2,9,0.00
2013-4-26,68,54,41,39,34,25,80,49,22,30.31,30.16,6,1,6,0.00
2013-4-27,71,56,41,39,32,29,67,42,26,30.33,30.17,5,1,5,0.00
2013-4-28,70,57,44,45,36,31,70,47,31,30.21,30.10,6,1,6,0.00
2013-4-29,56,55,53,49,46,39,79,72,54,30.14,30.08,4,0,4,0.06
2013-4-30,68,58,49,48,41,30,78,57,31,30.24,30.10,6,1,6,0.00
2013-5-1,69,55,40,48,39,31,79,56,39,30.39,30.23,6,1,6,0.00
2013-5-2,73,58,43,48,43,38,85,60,35,30.37,30.21,6,1,6,0.00
2013-5-3,67,57,49,45,40,36,72,55,37,30.36,30.24,5,1,5,0.00
2013-5-4,69,55,44,48,43,39,87,65,43,30.27,30.13,6,1,6,0.00
2013-5-5,65,53,43,47,41,36,84,65,41,30.20,30.11,6,1,6,0.00
2013-5-6,70,57,44,56,47,38,84,72,56,30.17,30.04,5,1,5,0.00
2013-5-7,73,61,49,60,53,44,89,75,61,30.07,29.98,6,1,6,0.00
2013-5-8,65,60,54,61,57,51,93,88,79,30.00,29.86,4,1,4,1.76
2013-5-9,66,58,52,61,55,50,94,90,81,29.90,29.77,4,0,4,0.66
2013-5-10,77,64,52,60,56,50,94,76,50,29.88,29.77,5,1,5,0.01
2013-5-11,68,64,61,64,60,56,93,90,80,29.79,29.58,6,1,6,0.49
2013-5-12,66,61,51,59,38,28,93,44,28,29.82,29.56,9,2,9,0.01
2013-5-13,56,50,44,34,31,26,63,49,33,29.99,29.82,8,1,8,0.00
2013-5-14,62,50,38,35,32,27,80,52,28,30.01,29.90,6,1,6,0.00
2013-5-15,70,57,43,57,47,33,78,69,54,29.95,29.55,6,1,6,0.00
2013-5-16,81,67,54,57,54,50,88,65,41,29.71,29.59,6,1,6,0.00
2013-5-17,73,64,56,51,44,40,69,50,35,30.08,29.71,5,1,5,0.00
2013-5-18,65,59,50,53,49,43,83,70,53,30.18,30.08,5,1,5,0.01
2013-5-19,59,58,56,57,54,50,92,87,74,30.20,30.05,4,0,4,0.30
2013-5-20,78,67,57,68,62,55,94,84,67,30.05,29.83,7,1,7,0.00
2013-5-21,85,74,63,71,66,60,93,77,63,29.86,29.71,6,2,6,0.00
2013-5-22,80,70,60,71,64,56,88,81,75,29.82,29.70,5,1,5,0.00
2013-5-23,76,71,66,70,67,63,93,87,76,29.77,29.62,5,1,5,0.88
2013-5-24,66,56,46,64,53,42,93,89,81,29.82,29.54,7,1,7,0.31
2013-5-25,53,49,45,47,43,40,92,82,66,29.87,29.76,7,2,7,0.28
2013-5-26,66,56,47,42,40,37,76,57,37,30.06,29.80,9,2,9,0.12
2013-5-27,74,60,45,45,42,38,82,55,29,30.11,29.97,6,1,6,0.06
2013-5-28,66,58,51,56,50,43,91,78,55,30.08,29.98,5,0,5,0.33
2013-5-29,83,69,58,70,62,56,93,81,59,30.00,29.85,7,1,7,0.00
2013-5-30,89,78,67,68,65,63,89,66,44,29.99,29.90,6,1,6,0.00
2013-5-31,88,79,68,70,66,62,87,65,46,29.99,29.84,5,1,5,0.00
2013-6-1,93,80,69,74,67,62,84,66,48,29.88,29.76,7,2,7,0.01
2013-6-2,90,80,73,73,68,66,81,69,53,29.78,29.63,9,3,9,0.18
2013-6-3,80,71,67,70,66,51,92,83,58,29.75,29.66,5,1,5,0.85
2013-6-4,78,66,56,52,47,44,65,51,35,29.98,29.75,7,2,7,0.00
2013-6-5,78,64,50,56,49,43,79,59,42,30.06,29.97,6,1,6,0.00
2013-6-6,72,63,54,58,54,49,89,75,54,29.99,29.87,8,1,8,0.19
2013-6-7,62,60,59,60,58,56,94,92,89,29.87,29.48,8,1,8,2.84
2013-6-8,77,66,56,68,61,55,95,84,67,29.90,29.44,6,1,6,0.22
2013-6-9,81,70,58,63,60,55,92,73,51,30.02,29.90,8,1,8,0.00
2013-6-10,71,65,62,66,62,59,93,89,79,30.01,29.67,5,0,5,1.38
2013-6-11,80,69,62,69,65,60,95,85,66,29.67,29.45,8,2,8,0.19
2013-6-12,79,69,62,60,56,53,84,65,46,29.70,29.54,7,2,7,0.00
2013-6-13,64,60,56,60,57,54,93,88,75,29.69,29.32,7,1,7,0.78
2013-6-14,76,61,53,63,55,51,93,80,57,29.72,29.37,6,1,6,0.41
2013-6-15,83,68,57,59,55,52,89,66,38,29.85,29.72,6,1,6,0.00
2013-6-16,81,70,57,65,59,52,86,70,51,29.83,29.61,9,2,9,0.00
2013-6-17,90,75,65,69,64,61,88,70,50,29.75,29.66,8,2,8,0.00
2013-6-18,83,69,63,70,64,60,92,84,61,29.74,29.65,5,0,5,0.91
2013-6-19,81,66,58,61,55,50,93,70,40,30.00,29.72,6,1,6,0.03
2013-6-20,85,69,56,64,57,51,87,68,47,30.10,30.00,6,1,6,0.00
2013-6-21,85,72,60,66,58,50,83,62,47,30.14,30.05,7,2,7,0.00
2013-6-22,86,72,60,67,59,52,78,64,51,30.10,29.96,7,2,7,0.00
2013-6-23,88,76,67,73,67,59,86,72,58,30.03,29.88,7,2,7,0.00
2013-6-24,94,80,73,74,69,64,88,70,47,29.91,29.76,6,2,6,0.00
2013-6-25,93,79,69,75,68,63,89,71,53,29.83,29.62,12,2,12,0.00
2013-6-26,86,79,74,72,68,66,78,69,60,29.67,29.59,5,1,5,0.00
2013-6-27,88,78,72,75,70,67,91,78,63,29.64,29.18,7,1,7,0.52
2013-6-28,87,78,72,74,70,65,91,78,60,29.23,29.01,9,2,9,0.38
2013-6-29,87,77,69,72,68,65,86,74,59,29.65,28.98,5,1,5,0.00
2013-6-30,82,76,70,76,71,67,91,84,75,29.87,29.65,6,1,6,0.00
2013-7-1,77,74,72,74,71,69,94,91,86,30.01,29.85,5,0,5,1.59
2013-7-2,87,77,72,78,73,70,94,87,72,30.13,30.00,8,2,8,0.01
2013-7-3,86,78,73,77,72,68,89,84,75,30.20,30.11,6,2,6,0.00
2013-7-4,91,82,75,77,74,71,92,78,61,30.20,30.09,8,2,8,0.01
2013-7-5,93,83,75,78,73,70,89,73,57,30.16,30.03,7,2,7,0.00
2013-7-6,93,84,77,75,72,71,83,69,53,30.08,29.96,7,2,7,0.00
2013-7-7,97,84,72,77,73,67,89,70,50,30.00,29.87,7,2,7,0.20
2013-7-8,92,79,70,73,69,67,89,73,50,29.99,29.90,6,2,6,0.00
2013-7-9,90,80,71,74,69,66,86,70,52,30.02,29.92,6,1,6,0.00
2013-7-10,90,82,75,77,72,68,83,73,58,29.95,29.73,8,2,8,0.01
2013-7-11,86,80,73,74,70,65,86,73,57,29.87,29.74,6,1,6,0.03
2013-7-12,78,73,68,69,66,62,90,77,70,30.05,29.86,5,1,5,0.10
2013-7-13,83,74,67,76,70,64,92,87,77,30.22,30.05,4,1,4,0.07
2013-7-14,93,82,73,76,73,70,92,75,54,30.28,30.16,7,1,7,0.00
2013-7-15,94,85,77,76,72,69,81,68,45,30.19,30.06,5,1,5,0.00
2013-7-16,93,83,73,73,69,66,87,66,43,30.15,30.06,6,1,6,0.00
2013-7-17,96,84,74,74,71,68,84,65,41,30.13,29.99,5,1,5,0.00
2013-7-18,98,87,76,77,72,70,87,64,44,30.00,29.87,6,1,6,0.00
2013-7-19,99,89,80,77,74,72,78,63,45,29.90,29.71,10,2,10,0.00
2013-7-20,96,86,80,75,71,65,72,62,47,29.77,29.65,6,2,6,0.00
2013-7-21,89,80,74,71,66,61,84,64,45,29.90,29.77,4,1,4,0.01
2013-7-22,83,77,73,75,71,64,92,82,66,29.90,29.74,2,0,2,0.51
2013-7-23,89,78,72,76,72,70,94,84,60,29.74,29.48,7,1,7,0.61
2013-7-24,81,75,68,72,66,53,93,74,54,29.87,29.55,7,2,7,0.00
2013-7-25,68,65,63,59,55,50,79,69,60,29.99,29.87,6,2,6,0.01
2013-7-26,83,72,65,67,61,58,81,68,51,29.97,29.92,5,1,5,0.00
2013-7-27,88,74,65,70,64,60,88,73,54,29.99,29.89,6,1,6,0.00
2013-7-28,81,72,66,71,66,62,91,82,70,29.92,29.85,5,1,5,0.25
2013-7-29,86,75,68,70,64,55,93,72,41,30.03,29.89,6,1,6,0.22
2013-7-30,83,70,59,60,58,54,86,66,45,30.09,30.03,6,1,6,0.01
2013-7-31,83,71,60,64,60,56,87,71,51,30.09,29.96,5,1,5,0.00
2013-8-1,74,69,67,67,64,62,93,86,75,29.98,29.76,6,1,6,0.56
2013-8-2,86,73,65,68,64,60,94,75,48,29.84,29.72,7,1,7,0.00
2013-8-3,81,71,67,70,64,59,85,77,63,29.84,29.77,9,1,9,0.06
2013-8-4,82,70,60,63,58,52,91,68,42,29.90,29.78,7,1,7,0.00
2013-8-5,80,67,56,55,52,45,85,60,38,29.99,29.90,6,1,6,0.00
2013-8-6,81,68,56,62,57,52,88,69,50,30.06,29.97,5,1,5,0.00
2013-8-7,79,72,67,68,64,60,87,77,67,30.08,29.99,6,1,6,0.00
2013-8-8,83,74,69,76,70,66,91,88,76,30.00,29.93,6,1,6,0.23
2013-8-9,89,77,72,78,73,69,93,88,68,29.95,29.72,7,2,7,0.28
2013-8-10,86,74,66,71,64,58,93,73,47,29.98,29.79,7,1,7,0.00
2013-8-11,82,70,59,63,59,54,88,69,49,30.05,29.95,5,1,5,0.00
2013-8-12,85,74,68,69,66,62,90,77,54,29.97,29.85,4,0,4,0.07
2013-8-13,78,71,67,71,67,64,92,87,75,29.86,29.62,10,0,10,0.55
2013-8-14,75,66,57,65,54,49,91,68,50,29.97,29.68,8,2,8,0.00
2013-8-15,80,65,53,56,52,49,89,67,41,30.06,29.97,6,1,6,0.00
2013-8-16,82,68,56,60,55,52,88,67,41,30.13,30.04,5,0,5,0.00
2013-8-17,84,69,57,63,58,53,88,69,45,30.20,30.13,4,0,4,0.00
2013-8-18,76,69,63,64,60,57,86,76,63,30.19,30.05,3,0,3,0.00
2013-8-19,80,70,62,66,62,57,89,76,59,30.06,29.95,6,1,6,0.28
2013-8-20,89,74,63,68,64,59,91,71,45,30.05,29.96,8,1,8,0.24
2013-8-21,91,77,65,68,64,61,88,67,42,30.11,29.97,5,1,5,0.64
2013-8-22,77,73,69,72,68,62,89,84,74,29.99,29.80,8,1,8,0.13
2013-8-23,80,73,65,68,61,54,91,70,43,30.03,29.80,6,1,6,0.25
2013-8-24,83,69,59,58,55,51,78,61,41,30.28,30.03,6,1,6,0.01
2013-8-25,89,70,57,63,56,52,89,65,37,30.32,30.15,7,1,7,0.00
2013-8-26,80,74,68,68,62,56,84,67,60,30.16,29.82,6,2,6,0.07
2013-8-27,87,77,70,70,68,66,88,75,56,29.83,29.73,7,2,7,0.10
2013-8-28,84,73,68,73,68,65,91,85,65,29.82,29.77,8,0,8,0.11
2013-8-29,80,73,70,71,68,64,92,83,68,29.95,29.81,4,0,4,0.01
2013-8-30,88,76,68,72,68,65,90,77,55,29.95,29.77,6,2,6,0.00
2013-8-31,86,78,72,75,71,68,88,79,69,29.79,29.69,7,2,7,0.00
2013-9-1,86,78,73,77,72,70,90,82,72,29.78,29.70,5,1,5,0.09
2013-9-2,82,76,72,76,72,69,91,87,79,29.72,29.63,4,0,4,0.04
2013-9-3,85,74,66,70,64,57,92,74,46,29.81,29.63,6,1,6,0.02
2013-9-4,90,72,61,64,58,53,83,65,39,29.92,29.80,8,1,8,0.00
2013-9-5,81,69,58,61,53,42,81,59,31,30.07,29.84,6,1,6,0.00
2013-9-6,79,61,50,50,46,42,80,59,33,30.17,30.05,6,1,6,0.00
2013-9-7,87,65,49,56,50,44,85,61,32,30.05,29.81,7,1,7,0.00
2013-9-8,83,71,60,64,54,44,75,57,33,29.99,29.73,6,1,6,0.00
2013-9-9,75,63,51,58,49,42,78,61,44,30.15,29.99,6,1,6,0.00
2013-9-10,89,77,67,74,67,58,81,73,58,30.07,29.95,6,2,6,0.00
2013-9-11,95,84,74,78,73,69,87,71,56,30.03,29.87,6,2,6,0.00
2013-9-12,86,78,69,75,70,65,91,77,62,29.90,29.58,5,1,5,1.53
2013-9-13,76,68,58,66,60,48,93,77,53,29.76,29.54,5,1,5,0.06
2013-9-14,68,58,50,51,47,45,84,68,52,30.03,29.76,6,1,6,0.00
2013-9-15,74,58,45,51,47,42,89,69,41,30.12,29.98,5,0,5,0.00
2013-9-16,72,62,56,58,53,46,87,73,52,30.16,29.93,5,0,5,0.01
2013-9-17,65,55,47,46,41,38,80,61,44,30.34,30.16,5,1,5,0.00
2013-9-18,74,57,43,50,46,40,89,69,38,30.25,30.08,5,1,5,0.00
2013-9-19,79,61,47,55,50,43,89,69,40,30.09,29.96,5,0,5,0.00
2013-9-20,80,63,50,61,54,47,90,74,47,30.00,29.89,5,1,5,0.00
2013-9-21,79,67,54,66,60,50,90,79,63,29.91,29.55,7,1,7,0.24
2013-9-22,69,62,53,66,52,42,91,72,49,29.82,29.54,6,1,6,0.43
2013-9-23,67,55,45,46,43,40,85,65,45,29.95,29.82,6,1,6,0.00
2013-9-24,74,56,42,49,44,38,88,67,37,29.95,29.76,5,1,5,0.00
2013-9-25,74,57,45,52,47,41,88,69,44,29.85,29.76,4,0,4,0.00
2013-9-26,72,60,49,58,52,46,91,77,55,30.00,29.84,4,0,4,0.00
2013-9-27,68,59,51,56,52,47,89,77,63,30.17,30.00,4,0,4,0.00
2013-9-28,74,61,51,57,52,48,91,73,49,30.23,30.14,5,1,5,0.00
2013-9-29,73,60,50,59,52,46,90,77,58,30.14,29.98,4,0,4,0.00
2013-9-30,74,59,48,57,51,45,92,76,51,29.99,29.86,4,0,4,0.00
2013-10-1,81,64,50,60,54,46,91,74,47,29.90,29.78,5,0,5,0.00
2013-10-2,85,68,55,65,58,52,91,74,47,29.91,29.80,6,1,6,0.00
2013-10-3,79,66,55,61,57,52,91,73,48,30.03,29.91,4,0,4,0.00
2013-10-4,86,70,60,68,62,56,89,78,53,29.96,29.85,5,0,5,0.02
2013-10-5,78,68,64,67,62,60,88,82,68,30.00,29.92,3,0,3,0.01
2013-10-6,68,66,65,64,63,62,91,89,84,30.00,29.93,3,0,3,0.00
2013-10-7,76,67,58,71,64,53,93,89,78,29.93,29.64,8,1,8,0.43
2013-10-8,66,56,48,54,48,45,92,76,52,30.22,29.88,5,0,5,0.01
2013-10-9,63,55,48,50,46,42,84,74,60,30.30,30.19,5,1,5,0.00
2013-10-10,63,57,52,54,50,45,82,77,73,30.19,29.97,5,1,5,0.00
2013-10-11,68,63,59,60,56,52,81,78,74,29.99,29.90,4,1,4,0.00
2013-10-12,72,64,57,57,51,40,79,63,35,30.18,29.97,7,2,7,0.00
2013-10-13,66,58,54,53,50,48,82,74,63,30.29,30.18,6,2,6,0.00
2013-10-14,70,57,49,53,49,45,89,76,53,30.26,30.13,4,0,4,0.00
2013-10-15,74,57,47,58,50,44,91,78,56,30.15,30.00,2,0,2,0.00
2013-10-16,68,59,51,59,53,47,89,81,70,30.00,29.79,4,0,4,0.00
2013-10-17,75,66,61,63,60,57,90,81,66,29.80,29.56,5,1,5,0.01
2013-10-18,70,62,52,61,48,41,87,63,43,29.87,29.55,8,2,8,0.00
2013-10-19,64,54,43,52,45,39,88,73,54,29.87,29.62,6,1,6,0.00
2013-10-20,66,54,45,52,41,36,81,63,35,29.94,29.62,7,1,7,0.00
2013-10-21,69,52,39,45,40,35,87,66,39,30.03,29.86,6,1,6,0.00
2013-10-22,66,54,44,52,45,39,88,73,58,29.86,29.62,1,0,1,0.01
2013-10-23,55,47,40,43,38,35,88,72,53,29.69,29.49,0,0,0,0.00
2013-10-24,55,45,37,35,32,27,80,61,39,29.88,29.62,0,0,0,0.00
2013-10-25,56,44,34,35,30,27,77,61,38,30.11,29.88,0,0,0,0.00
2013-10-26,58,44,32,37,31,27,86,62,39,30.10,29.77,12,1,12,0.00
2013-10-27,59,50,40,36,33,30,70,53,39,30.00,29.72,7,1,7,0.00
2013-10-28,63,47,33,38,33,28,84,62,38,30.20,30.00,7,1,7,0.00
2013-10-29,56,46,39,35,33,30,74,60,45,30.30,30.20,5,0,5,0.00
2013-10-30,58,48,39,48,40,32,86,76,66,30.23,30.05,4,0,4,0.00
2013-10-31,65,55,42,59,50,38,90,85,76,30.11,29.67,5,1,5,0.00
2013-11-1,70,64,54,62,57,50,87,78,59,29.67,29.42,10,2,10,0.11
2013-11-2,68,55,48,52,46,39,91,74,49,29.66,29.48,5,0,5,0.00
2013-11-3,52,44,35,41,33,21,83,64,48,30.33,29.65,8,2,8,0.00
2013-11-4,49,38,32,25,21,18,68,51,34,30.53,30.33,6,1,6,0.00
2013-11-5,56,45,33,42,35,25,79,69,56,30.53,30.34,4,0,4,0.00
2013-11-6,65,51,39,50,43,35,89,75,56,30.36,29.94,6,1,6,0.00
2013-11-7,62,53,38,56,47,32,89,81,62,29.94,29.61,6,1,6,0.13
2013-11-8,50,42,37,33,29,25,80,61,42,30.08,29.80,6,1,6,0.00
2013-11-9,51,43,32,32,29,25,76,58,45,30.16,29.89,5,1,5,0.00
2013-11-10,60,48,41,39,34,30,73,59,39,29.92,29.66,10,2,10,0.00
2013-11-11,54,48,41,33,30,25,55,49,42,30.07,29.82,7,2,7,0.00
2013-11-12,50,38,30,35,24,15,77,56,45,30.15,29.79,9,2,9,0.02
2013-11-13,41,32,27,18,16,12,66,51,31,30.24,30.13,8,1,8,0.00
2013-11-14,54,40,28,23,20,17,66,46,27,30.13,30.00,7,2,7,0.00
2013-11-15,57,42,31,32,25,19,68,52,34,30.11,30.00,4,0,4,0.00
2013-11-16,64,48,37,47,39,26,85,71,52,30.19,30.08,5,0,5,0.02
2013-11-17,59,54,43,56,50,39,90,87,84,30.14,29.64,4,0,4,0.00
2013-11-18,66,59,50,58,43,29,91,60,33,29.64,29.45,10,3,10,0.18
2013-11-19,50,43,34,30,25,20,58,50,44,30.21,29.64,9,3,9,0.00
2013-11-20,46,34,28,21,18,14,66,52,31,30.47,30.21,3,0,3,0.00
2013-11-21,53,40,24,38,29,16,77,66,54,30.48,30.24,0,0,0,0.00
2013-11-22,57,51,46,50,45,37,86,78,71,30.24,29.75,0,0,0,0.07
2013-11-23,53,41,29,47,26,8,83,55,40,29.91,29.74,0,0,0,0.01
2013-11-24,31,26,22,9,6,1,50,43,28,30.23,29.86,0,0,0,0.00
2013-11-25,38,29,22,16,12,7,62,50,38,30.34,30.18,0,0,0,0.00
2013-11-26,46,36,33,44,25,15,93,64,47,30.18,29.63,0,0,0,0.41
2013-11-27,60,47,34,58,42,22,94,85,61,29.63,29.18,0,0,0,1.83
2013-11-28,35,32,29,23,18,13,73,59,41,30.32,29.58,0,0,0,0.00
2013-11-29,38,32,26,24,21,15,78,64,51,30.58,30.31,0,0,0,0.00
2013-11-30,38,30,21,26,18,12,72,63,49,30.62,30.22,0,0,0,0.03
2013-12-1,52,40,31,36,30,24,80,68,51,30.22,29.85,0,0,0,0.00
2013-12-2,47,39,32,39,33,28,87,79,72,29.85,29.73,0,0,0,0.00
2013-12-3,56,39,29,42,33,26,90,79,57,29.85,29.70,0,0,0,0.00
2013-12-4,52,41,31,42,35,28,89,79,66,29.98,29.85,0,0,0,0.00
2013-12-5,55,50,46,53,47,39,92,88,78,29.97,29.76,0,0,0,0.04
2013-12-6,56,47,36,53,44,33,92,91,89,30.00,29.70,0,0,0,0.84
2013-12-7,41,36,30,33,28,18,92,75,51,30.36,29.93,0,0,0,0.09
2013-12-8,33,30,25,26,20,16,85,69,61,30.44,30.22,0,0,0,0.00
2013-12-9,38,34,29,35,31,26,91,89,85,30.23,29.79,0,0,0,0.14
2013-12-10,35,32,26,33,29,21,92,89,80,29.96,29.70,0,0,0,0.07
2013-12-11,37,28,23,23,19,17,81,70,55,30.15,29.96,0,0,0,0.09
2013-12-12,30,24,21,18,11,7,71,56,44,30.19,29.98,0,0,0,0.01
2013-12-13,37,27,19,19,14,7,70,57,46,30.16,29.95,0,0,0,0.01
2013-12-14,31,24,19,28,18,15,89,78,66,30.34,29.65,0,0,0,0.00
2013-12-15,40,34,29,35,29,23,91,83,70,29.82,29.35,0,0,0,0.36
2013-12-16,32,27,18,24,14,10,76,59,44,30.22,29.81,0,0,0,0.00
2013-12-17,29,24,18,24,19,11,86,81,74,30.22,29.91,0,0,0,0.00
2013-12-18,39,28,18,26,20,14,88,74,51,30.14,29.90,0,0,0,0.06
2013-12-19,45,33,23,31,25,17,83,72,54,30.16,29.99,0,0,0,0.10
2013-12-20,49,40,31,38,32,27,88,75,59,30.08,29.93,0,0,0,0.03
2013-12-21,64,50,40,52,44,36,91,81,63,29.97,29.74,4,0,4,0.01
2013-12-22,69,63,53,63,58,51,95,82,72,29.97,29.80,5,2,13,0.00
2013-12-23,60,53,40,58,51,31,98,91,70,30.16,29.90,14,0,14,0.58
2013-12-24,40,34,24,31,23,9,92,63,48,30.36,30.09,18,1,18,0.00
2013-12-25,29,23,17,17,9,6,69,55,43,30.55,30.36,15,0,15,0.00
2013-12-26,36,30,25,27,22,17,85,74,63,30.44,30.17,11,0,11,0.00
2013-12-27,40,32,25,25,22,19,86,68,47,30.37,30.27,12,0,12,0.00
2013-12-28,56,39,25,30,26,22,87,62,36,30.30,30.07,14,1,14,0.00
2013-12-29,45,39,33,40,34,28,96,84,60,30.08,29.44,10,0,10,0.82
2013-12-30,42,33,21,38,26,10,97,75,53,30.21,29.69,16,1,16,0.00
2013-12-31,32,25,18,22,13,8,73,61,49,30.29,30.07,11,1,11,0.00
2014-1-1,32,27,20,20,15,8,70,59,50,30.42,30.27,8,0,8,0.00
2014-1-2,30,23,12,22,18,8,89,81,61,30.27,29.71,10,1,10,0.00